Погода в Томске

Хотите узнать прогноз погоды в Томске? Тогда Вам сюда: Погода в Томске

Поиск расширенной информации на нашем сайте:

Полезная информация:

Новости сайта



02.01.2020
Опубликован Долгосрочный прогноз погоды по городам России и ближнего зарубежья на январь 2020 года.
Карты: Прогноз на январь и февраль 2020 года, Сравнение прогнозируемой аномалии приземной температуры воздуха на январь 2020 года по разным моделям.




Погода в Томске - сегодня

Время (UTC), дата Ветер
(°,м/с) 
Видим.   Явления Облачность Т
(°С)
Тd
(°С)
f(%) Тe
(°С)
Pmin
(гПа)
dP
(гПа)
Po
(мм)
O2
(г/м3)
Тmin Tmax R s Состояние
почвы
06 30.11.20 260 (З) 20000 м  {снег}  8/0 верхняя 
[Ci fib]
-14.6 -17 82 -15  1046.7  0.7  771  330           
09 30.11.20 300 (СЗ) 20000 м    8/8 500 м 
[Sc]
-15.3 -17.8 81 -15  1047.3  0.5  771  331           
12 30.11.20 270 (З) 20000 м    10/10 500 м 
[Sc]
-17.2 -19.6 82 -17  1048.7  1.3  772  334    -13.5  0.0     
15 30.11.20 250 (З) 20000 м    10/10 480 м 
[Sc]
-17.6 -20 81 -18  1049  0.2  772  334           
18 30.11.20 220 (ЮЗ) 20000 м    10/4 300 м верхняя 
[Sc|Ci fib]
-18.9 -21.5 80 -19  1049.4  0.3  773  336           
21 30.11.20 220 (ЮЗ) 20000 м    10/0 верхняя 
[Cs]
-19.2 -21.9 79 -19  1049.3  -0.1  772  336           
00 01.12.20 200 (Ю) 20000 м    10/0 средняя 
[As trans]
-18.1 -20.6 81 -18  1049  -0.3  772  335  -19.3      14  равномерный
сухой снег
100% 
03 01.12.20 190 (Ю) 20000 м  слаб. снег  10/10 500 м 
[Sc]
-16.8 -19.2 82 -17  1048.6  -0.2  772  333           
06 01.12.20 200 (Ю) 20000 м  {снег}  10/0 верхняя 
[Ci fib]
-15.2 -17.7 81 -15  1048.7  0.2  772  331           
09 01.12.20 190 (Ю) 20000 м    10/0 верхняя 
[Cc]
-14.6 -17.2 81 -15  1047.7  -1  771  330           
12 01.12.20 210 (ЮЗ) 20000 м    10/10 570 м 
[Sc]
-15 -17 85 -15  1048.2  0.5  772  331    -14.2  0.0     
15 01.12.20 200 (Ю) 20000 м    10/10 800 м 
[Sc]
-14.4 -16.5 84 -14  1047.8  -0.4  772  330           
18 01.12.20 200 (Ю) 20000 м    10/10 240 м 
[Sc]
-15.7 -18 82 -16  1047.8  -0.1  771  331           
21 01.12.20 тихо ()   20000 м  слаб. снег  10/10 270 м 
[Sc]
-15.6 -17.9 82 -16  1047.6  -0.1  771  331           
00 02.12.20 190 (Ю) 20000 м  слаб. снег  10/8 600 м средняя 
[Sc|Ac und]
-15.4 -17.7 83 -15  1047.7  0.1  771  331  -16    0.2  15  равномерный
сухой снег
100% 
03 02.12.20 тихо ()   20000 м    10/8 540 м средняя 
[Sc|Ac As]
-15.8 -18 83 -16  1048.1  0.3  772  332  -16.1         
06 02.12.20 тихо ()   20000 м  {снег}  9/0 средняя 
[Ac trans]
-14.6 -17.7 77 -15  1047.8  -0.2  772  330           
09 02.12.20 тихо ()   20000 м  пыльный позёмок{снег}  10/6 270 м средняя 
[Frnb|As op]
-13.4 -16.9 75 -13  1046.9  -0.8  771  328           
12 02.12.20 тихо ()   20000 м  слаб. снег  10/3 300 м средняя 
[Frnb|As op]
-14 -17 78 -14  1046.5  -0.4  771  329    -13.2  0.3     
15 02.12.20 тихо ()   20000 м  {снег}  10/0 средняя 
[Ac trans]
-14.4 -17.2 79 -14  1045.5  -1  770  329           
18 02.12.20 тихо ()   20000 м  {снег}  10/0 средняя 
[Ac trans]
-16.7 -18.9 83 -17  1044.8  0.1  769  332           
21 02.12.20 тихо ()   20000 м    ясно 
-16.9 -19.2 82 -17  1043.8  -1  768  332           
00 03.12.20 тихо ()   20000 м    10/0 верхняя 
[Ci fib]
-16.2 -18.5 82 -16  1042.5  -1.2  768  330  -17.6    0.0  15  равномерный
сухой снег
100% 
03 03.12.20 тихо ()   20000 м    4/0 верхняя 
[Ci fib]
-18.6 -21.2 80 -19  1042  -0.7  767  333  -18.6         
06 03.12.20 тихо ()   20000 м    ясно 
-15.3 -17.8 81 -15  1040.6  -1  766  329           
Время (UTC), дата Ветер
(°,м/с) 
Видим.   Явления Облачность Т
(°С)
Тd
(°С)
f(%) Тe
(°С)
Pmin
(гПа)
dP
(гПа)
Po
(мм)
O2
(г/м3)
Тmin Tmax R s Состояние
почвы

Для получения пояснительной информации подведите курсор к названию столбца.

ПОГОДА в Томске - архив

Всё, что Вы хотите узнать о погоде в Томске - удобно и подробно!

Выберите нужную дату (начиная с 1 января 2019* года) и нажмите кнопку "Найти".
Будут отображены архивные сводки погоды по пункту Томск, начиная с указанной даты.


Отображать данные в формате CSV (для использования в таблицах Excel)


Внимание! Наш архив погоды предназначен исключительно для личного некоммерческого использования в познавательных целях. Если Вам необходимы официальные справки о состоянии погоды (для производственных, юридических, коммерческих и т.п. целей), обращайтесь в органы Росгидромета.

*Примечание: данная дата относится к архиву по метеостанциям СССР (Россия, СНГ, Балтия).
Архив по метеостанциям Зарубежной Европы и Азии (кроме Китая) хранится 10 дней, по другим регионам земного шара (Китай, Африка, Америка, Австралия, Океания) - 1 день.

Томск - район местоположения метеостанции


Название, широта, долгота, высота метеостанции:
Томск 56.5°ш. 84.9°д. 139 м над ур. моря [Российская Федерация]

Дополнительная информация

В oтличие oт бoльшинства пoгoдных сайтoв мы публикуем пoдрoбную метеoинфoрмацию в детальнoм прoфессиoнальнoм фoрмате.

Характеристики температуры и влажнoсти вoздуха измеряются на высoте 2 м в тени вдали oт зданий и деревьев.
Скoрoсть ветра измеряется на высoте 10 м (на урoвне рoста челoвека скoрoсть ветра ниже в 1.5-2 раза). Если метеoстанция нахoдится в гoрoде или в лесу, тo скoрoсть ветра занижена на 2-4 м/с пo сравнению с oткрытым местoм. Скoрoсть ветра над акватoриями крупных рек и oзёр, а также на вершинах хoлмoв на 2-5 м/с выше, чем в oбычных услoвиях.
Атмoсфернoе давление в разных тoчках местнoсти мoжет значительнo oтличаться oт давления на метеoстанции, в зависимoсти oт услoвий рельефа (при пoдъёме на 10 м давление пoнижается примернo на 1 мм рт.ст.).